Hourly Data Report for September 03, 2017

All times are specified in Local Standard Time (LST). Add 1 hour to adjust for Daylight Saving Time where and when it is observed.

OTTAWA INTL A
ONTARIO

45°19'00.000" N
75°40'00.000" W
114.90 m
6106001
71628
YOW

Download Data

Hourly Data (September 2017)
Hourly Data Report for September 3, 2017
Temp Definition
°C
Dew Point Temp Definition
°C
Rel Hum Definition
%
Wind Dir Definition
10's deg

Wind Spd Definition
km/h
Visibility Definition
km
Stn Press Definition
kPa
Hmdx Definition


Wind Chill Definition


Weather Definition


TIME
00:00 Legend Double Dagger 10.5 7.2 80 8 11 24.1 100.36     LegendNANA
01:00 Legend Double Dagger 11.2 7.7 79 10 11 24.1 100.29     Mostly Cloudy
02:00 Legend Double Dagger 10.9 8.0 83 6 9 24.1 100.25     LegendNANA
03:00 Legend Double Dagger 10.4 8.6 88 8 5 16.1 100.22     Rain
04:00 Legend Double Dagger 10.5 9.2 92 12 8 16.1 100.20     Cloudy
05:00 Legend Double Dagger 10.6 9.5 93 8 10 12.9 100.17     Rain
06:00 Legend Double Dagger 10.3 9.5 95 7 8 12.9 100.10     Rain
07:00 Legend Double Dagger 10.3 9.6 95 7 14 12.9 100.04     Rain
08:00 Legend Double Dagger 10.8 9.8 94 9 18 12.9 99.96     Rain
09:00 Legend Double Dagger 11.1 10.3 95 10 16 4.8 99.90     Rain,Fog
10:00 Legend Double Dagger 11.5 10.8 95 10 18 3.2 99.83     Rain,Fog
11:00 Legend Double Dagger 11.8 11.0 95 10 17 3.2 99.77     Rain,Fog
12:00 Legend Double Dagger 12.6 11.7 95 10 16 3.2 99.69     Rain,Fog
13:00 Legend Double Dagger 12.9 12.2 95 10 10 4.0 99.62     Rain,Fog
14:00 Legend Double Dagger 13.3 12.3 94 10 10 8.1 99.55     Drizzle,Fog
15:00 Legend Double Dagger 13.4 12.7 96 9 10 2.4 99.51     Drizzle,Fog
16:00 Legend Double Dagger 13.8 13.3 96 6 10 1.6 99.46     Drizzle,Fog
17:00 Legend Double Dagger 13.6 13.1 97 3 11 2.4 99.48     Drizzle,Fog
18:00 Legend Double Dagger 13.5 12.9 96 1 11 6.4 99.47     Drizzle,Fog
19:00 Legend Double Dagger 13.3 12.7 96 35 9 9.7 99.47     Drizzle,Fog
20:00 Legend Double Dagger 13.4 12.8 96 30 8 9.7 99.50     Drizzle,Fog
21:00 Legend Double Dagger 13.1 12.4 96 27 8 16.1 99.52     LegendNANA
22:00 Legend Double Dagger 12.9 12.3 96 26 12 16.1 99.53     Cloudy
23:00 Legend Double Dagger 12.4 11.8 96 26 10 16.1 99.50     LegendNANA

Notes on Data Quality.

Legend

  • E = Estimated
  • M = Missing
  • NA = Not Available
  • ‡ = Partner data that is not subject to review by the National Climate Archives
Date modified: